Regional Weather Roundup
Issued by NWS Charleston, SC

Current Version | Previous Version | Graphics & Text | Print | Product List | Glossary On
Versions: 1 2 3 4 5 6 7 8 9 10 11 12 13 14 15 16 17 18 19 20 21 22 23 24 25 26 27 28 29 30 31 32 33 34 35 36 37 38 39 40 41 42 43 44 45 46 47 48 49 50
000
ASUS42 KCHS 310012
RWRCHS

REGIONAL WEATHER ROUNDUP
NATIONAL WEATHER SERVICE CHARLESTON SC
800 PM EDT SUN AUG 30 2015

NOTE: "FAIR" INDICATES FEW OR NO CLOUDS BELOW 12,000 FEET WITH NO
SIGNIFICANT WEATHER AND/OR OBSTRUCTIONS TO VISIBILITY.

NOT ALL STATIONS ARE QUALITY CONTROLLED BY THE NATIONAL
WEATHER SERVICE. USE DATA WITH CAUTION...ESPECIALLY
DEWPOINT OBSERVATIONS.

SCZ027-030-031-034>040-042>050-310100-
...SOUTHEAST SOUTH CAROLINA...

CITY           SKY/WX    TMP DP  RH WIND       PRES   REMARKS
N CHARLESTON   CLOUDY    75  71  87 SE12      30.09R
6HR MIN TEMP:  74; 6HR MAX TEMP:  77; 6HR PCP:  0.51;

WATERFRONT PRK   N/A     78  74  87 E14       30.06R
MOUNT PLEASANT FAIR      73  73 100 E3        30.09S
JOHNS ISLAND   FAIR      77  73  88 E12G21    30.09S
PINOPOLIS        N/A     77  73  88 VRB3      30.02R
MONCKS CORNER  MOCLDY    75  72  88 CALM      30.09F
SUMMERVILLE    CLOUDY    73  73 100 CALM      30.10S
BEAUFORT MCAS  RAIN      76  74  93 E9        30.07S
6HR MIN TEMP:  74; 6HR MAX TEMP:  79; 6HR PCP:  1.00;

BEAUFORT ARPT  HVY RAIN  75  75 100 E12G18    30.06F
HILTON HEAD IS HVY RAIN  75  73  94 E9        30.07F VSB 1
WALTERBORO     CLOUDY    75  73  94 E5        30.10S
ALLENDALE      CLOUDY    75  72  88 CALM      30.08R

...SOUTHERN MIDLANDS AND PEE DEE...

CITY           SKY/WX    TMP DP  RH WIND       PRES   REMARKS
GEORGETOWN     NOT AVBL
KINGSTREE      NOT AVBL
ORANGEBURG     CLOUDY    76  71  85 SE3       30.10R
6HR MIN TEMP:  75; 6HR MAX TEMP:  81; 6HR PCP:  0.12;

BARNWELL       MOCLDY    77  73  88 CALM      30.11R
AIKEN          LGT RAIN  68  66  94 W9        30.15R
MANNING        CLOUDY    72  72 100 E3        30.11R
COLUMBIA       LGT RAIN  73  70  90 E9        30.09S
6HR MIN TEMP:  73; 6HR MAX TEMP:  80; 6HR PCP:  0.48;

SUMTER         CLOUDY    72  71  94 E6        30.10R
6HR MIN TEMP:  72; 6HR MAX TEMP:  81; 6HR PCP:  0.14;

FLORENCE       LGT RAIN  72  70  93 E6        30.12R
6HR MIN TEMP:  72; 6HR MAX TEMP:  78; 6HR PCP:  0.19;

MYRTLE BEACH   CLOUDY    79  70  73 E7        30.14S
N MYRTLE BEACH LGT RAIN  74  71  91 NE8       30.12F
6HR MIN TEMP:  74; 6HR MAX TEMP:  80;


$$

GAZ063-065-086>088-099>101-113>116-118-119-134>141-150-310100-
...SOUTHEAST GEORGIA...

CITY           SKY/WX    TMP DP  RH WIND       PRES   REMARKS
SAVANNAH ARPT  RAIN      76  73  91 SE8       30.06S VSB 1
6HR MIN TEMP:  74; 6HR MAX TEMP:  78; 6HR PCP:  0.50;

HUNTER AAF     CLOUDY    76  76 100 E2        30.03S
6HR MIN TEMP:  75; 6HR MAX TEMP:  78; 6HR PCP:  0.71;

FORT STEWART   CLOUDY    77  73  88 CALM      30.03S
6HR MIN TEMP:  76; 6HR MAX TEMP:  80; 6HR PCP:  0.21;

STATESBORO     CLOUDY    76  76 100 E5        30.07S
SYLVANIA       RAIN      77  75  94 CALM      30.09R
CLAXTON        NOT AVBL

...CSRA...CENTRAL AND FAR SOUTHEAST GEORGIA...

CITY           SKY/WX    TMP DP  RH WIND       PRES   REMARKS
THOMSON        CLOUDY    72  72 100 E9        30.14S
AUGUSTA-BUSH   LGT RAIN  71  69  93 N3        30.09F
6HR MIN TEMP:  69; 6HR MAX TEMP:  85; 6HR PCP:  0.47;

AUGUSTA-DANIEL CLOUDY    71  67  87 N8        30.11F
SWAINSBORO     CLOUDY   N/A N/A N/A CALM      30.08S
VIDALIA        CLOUDY    77  73  88 E6        30.06R
EASTMAN        FAIR      77  77 100 E8        30.07R
HAZLEHURST     FAIR      80  76  88 E3        30.04R
ALMA           MOCLDY    79  73  82 E8        30.03S
6HR MIN TEMP:  79; 6HR MAX TEMP:  88;

WAYCROSS       CLOUDY    82  78  87 SE8       30.02F HX  91
JESUP          CLOUDY    81  77  89 E5        30.04S
BAXLEY         MOCLDY    79  73  83 E7        30.04R
BRUNSWICK      CLOUDY    77  75  94 SE5       30.03F
SAINT SIMONS   CLOUDY    79  74  84 SE14G22   30.03S
6HR MIN TEMP:  75; 6HR MAX TEMP:  80; 6HR PCP:  0.02;


$$

SCZ027-028-034-036>038-045-046-048>050-GAZ119-141-310100-
...LAKE AND SUPPLEMENTAL COASTAL OBSERVATIONS...

STATION/POSITION TIME  TEMP    WIND        PRES    WAVE   SWELL
                       AIR SEA DIR/SP/G            HT/PER HT/PER/DIR
                 (UTC) (F)     (DEG/KT/KT) (MB)    (FT/S) (FT/S/D)
UPR LAKE MARION  NOT AVBL
WINYAH BAY       NOT AVBL
LAKE MURRAY      2300   71      70/  7/ 15 1019.0R
ACE BASIN NERRS  NOT AVBL
FORT PULASKI     NOT AVBL
SAPELO ISLAND    2300   76     130/  8     1017.0S

$$

ANZ835-935-AMZ111-154-330-350-352-354-370-450-454-472-310100-
...C-MAN AND BUOY OBSERVATIONS...

STATION/POSITION TIME  TEMP    WIND        PRES    WAVE   SWELL
                       AIR SEA DIR/SP/G            HT/PER HT/PER/DIR
                 (UTC) (F)     (DEG/KT/KT) (MB)    (FT/S) (FT/S/D)
BUOY 41004       2350   78 84  100/ 16/ 17 1018.4F   5/10   5/10
BUOY 41008       2350   79 84  150/ 17/ 21 1017.2R   5/ 9   3/120/ 9
FOLLY BEACH CMAN 2300   77     100/ 20/ 23 1018.8R
CAPERS NEARSHORE 2308   78     100/ 19/ 25 1019.1F
FRIPP NEARSHORE  2300   78     110/ 21     1017.4R


STATION/POSITION TIME  TEMP    WIND        PRES    WAVE   SWELL
                       AIR SEA DIR/SP/G            HT/PER HT/PER/DIR
                 (UTC) (F)     (DEG/KT/KT) (MB)    (FT/S) (FT/S/D)
5E ST. MARYS GA  2321      86                N/A     5/10   2/100/11
FRYING PAN BUOY  2350   81 82  110/  2/  4 1020.3F   4/11   3/140/11
BUOY 41025       2350   78 81  340/  4/  4 1020.4R   3/10   3/ 90/10
CAPE LOOKOUT NC  2300   78     220/  2/  3 1019.9R
BUOY 41002       2350   83 85  150/  6/  8 1020.2R   5/ 9   5/140/ 9
BUOY 41010       2320   84 86  150/ 12/ 14 1017.3S
ST AUGUSTINE FL  0000   80 85   70/  6/  8 1016.8F


$$


USA.gov is the U.S. government's official web portal to all federal, state and local government web resources and services.